Printer-friendly version

IAU Minor Planet Center

Minor Planet Center

100P/Hartley

Orbital Elements

The following orbital elements are taken from MPC 56805:
100P/Hartley
Epoch 2009 Nov. 25.0 TT = JDT 2455160.5
T 2009 Dec. 6.1473 TT                                   MPC
q   1.982408             (2000.0)            P               Q
n   0.1565268      Peri.  181.7079      -0.7728420      +0.5763349
a   3.409914       Node    37.8448      -0.5769798      -0.4638898
e   0.418634       Incl.   25.6542      -0.2642150      -0.6727884
P   6.30
From 172 observations 1985-2003, mean residual 0".8.  Nongravitational
     parameters A1 = +0.24, A2 = -0.0018.
Elements are also available for the current standard epoch:
100P/Hartley
Epoch 2010 Jan. 4.0 TT = JDT 2455200.5
T 2009 Dec. 6.1485 TT                                   MPC
q   1.982408             (2000.0)            P               Q
n   0.1565407      Peri.  181.7084      -0.7728365      +0.5763409
a   3.409714       Node    37.8449      -0.5769844      -0.4638809
e   0.418600       Incl.   25.6545      -0.2642211      -0.6727895
P   6.30
An explanation of the orbital elements is available.

These orbital elements are also available in forms suitable for loading into a number of popular planetarium-type software programs.


Ephemeris

The following ephemeris is at intervals of five days. A daily ephemeris covering the same time interval is also available.

Personalized ephemerides for this (and other) objects may be generated using the Minor Planet & Comet Ephemeris Service.

Recent magnitude estimates for this comet (as reported to the ICQ) may be available.

Date    TT    R. A. (2000) Decl.     Delta      r     Elong.  Phase   m1    m2

WARNING!

This comet gets close to the sun during the period covered in the ephemeris below. Observers are warned to be wary of observing comets near the sun. NEVER point any kind of optical instrument at the sun--instant blindness will be the probable result.

2009 10 26 13 45.72 -06 10.0 2.991 2.009 7.3 3.6 17.4 23.7 2009 10 31 13 55.83 -07 43.7 2.978 2.003 8.8 4.3 17.4 23.8 2009 11 05 14 06.05 -09 16.5 2.964 1.998 10.5 5.2 17.4 23.8 2009 11 10 14 16.39 -10 48.2 2.949 1.993 12.4 6.1 17.3 23.8 2009 11 15 14 26.86 -12 18.8 2.933 1.989 14.4 7.1 17.3 23.9 2009 11 20 14 37.45 -13 48.0 2.915 1.987 16.4 8.1 17.3 23.9 2009 11 25 14 48.17 -15 15.8 2.896 1.984 18.5 9.1 17.3 23.9 2009 11 30 14 59.01 -16 41.9 2.875 1.983 20.6 10.1 17.2 23.9 2009 12 05 15 09.99 -18 06.4 2.854 1.982 22.8 11.1 17.2 24.0 2009 12 10 15 21.11 -19 28.9 2.831 1.983 25.0 12.1 17.2 24.0 2009 12 15 15 32.37 -20 49.5 2.807 1.984 27.2 13.1 17.2 24.0 2009 12 20 15 43.76 -22 08.0 2.782 1.985 29.5 14.1 17.2 24.0 2009 12 25 15 55.28 -23 24.3 2.756 1.988 31.7 15.1 17.2 24.0 2009 12 30 16 06.92 -24 38.4 2.729 1.991 34.0 16.0 17.2 24.0 2010 01 04 16 18.67 -25 50.0 2.701 1.995 36.3 17.0 17.2 24.1 2010 01 09 16 30.55 -26 59.2 2.672 2.000 38.6 17.9 17.2 24.1 2010 01 14 16 42.52 -28 06.0 2.642 2.006 41.0 18.8 17.2 24.1 2010 01 19 16 54.58 -29 10.2 2.611 2.012 43.4 19.6 17.2 24.1 2010 01 24 17 06.71 -30 12.0 2.579 2.019 45.8 20.4 17.2 24.1 2010 01 29 17 18.89 -31 11.3 2.546 2.027 48.2 21.2 17.2 24.1 2010 02 03 17 31.12 -32 08.1 2.513 2.036 50.6 22.0 17.2 24.1 2010 02 08 17 43.36 -33 02.6 2.478 2.045 53.1 22.7 17.2 24.1 2010 02 13 17 55.60 -33 54.8 2.444 2.055 55.6 23.4 17.2 24.1 2010 02 18 18 07.81 -34 44.8 2.408 2.065 58.2 24.0 17.2 24.1 2010 02 23 18 19.96 -35 33.0 2.373 2.076 60.7 24.6 17.2 24.1 2010 02 28 18 32.02 -36 19.3 2.336 2.088 63.3 25.1 17.2 24.1 2010 03 05 18 43.97 -37 04.1 2.300 2.100 65.9 25.5 17.3 24.1 2010 03 10 18 55.78 -37 47.5 2.263 2.113 68.6 25.9 17.3 24.1 2010 03 15 19 07.42 -38 29.9 2.226 2.127 71.3 26.3 17.3 24.1 2010 03 20 19 18.85 -39 11.7 2.189 2.141 74.0 26.6 17.3 24.1 2010 03 25 19 30.02 -39 53.0 2.152 2.155 76.8 26.8 17.3 24.0 2010 03 30 19 40.92 -40 34.2 2.115 2.170 79.6 26.9 17.4 24.0 2010 04 04 19 51.51 -41 15.7 2.078 2.185 82.5 27.0 17.4 24.0 2010 04 09 20 01.75 -41 57.8 2.042 2.201 85.4 27.0 17.4 24.0 2010 04 14 20 11.58 -42 40.9 2.006 2.218 88.4 26.9 17.4 24.0 2010 04 19 20 20.97 -43 25.4 1.971 2.234 91.4 26.7 17.5 23.9 2010 04 24 20 29.88 -44 11.5 1.937 2.251 94.5 26.4 17.5 23.9 2010 04 29 20 38.25 -44 59.4 1.903 2.269 97.6 26.1 17.5 23.9 2010 05 04 20 46.03 -45 49.5 1.872 2.286 100.8 25.7 17.5 23.8 2010 05 09 20 53.17 -46 41.9 1.841 2.305 104.1 25.1 17.6 23.8 2010 05 14 20 59.60 -47 36.7 1.812 2.323 107.3 24.5 17.6 23.8 2010 05 19 21 05.25 -48 33.9 1.786 2.342 110.6 23.9 17.6 23.7 2010 05 24 21 10.04 -49 33.2 1.761 2.361 113.9 23.1 17.7 23.7 2010 05 29 21 13.93 -50 34.3 1.739 2.380 117.2 22.3 17.7 23.7 2010 06 03 21 16.82 -51 36.8 1.720 2.399 120.5 21.4 17.8 23.6 2010 06 08 21 18.64 -52 40.0 1.704 2.419 123.7 20.4 17.8 23.6 2010 06 13 21 19.32 -53 43.1 1.691 2.439 126.8 19.5 17.9 23.6 2010 06 18 21 18.81 -54 45.0 1.682 2.459 129.8 18.5 17.9 23.5 2010 06 23 21 17.07 -55 44.3 1.677 2.479 132.5 17.6 18.0 23.5 2010 06 28 21 14.12 -56 39.7 1.676 2.500 134.9 16.7 18.1 23.5 2010 07 03 21 09.99 -57 29.8 1.679 2.520 137.0 16.0 18.2 23.5 2010 07 08 21 04.79 -58 13.3 1.688 2.541 138.6 15.3 18.2 23.5 2010 07 13 20 58.66 -58 48.7 1.701 2.562 139.7 14.9 18.3 23.5 2010 07 18 20 51.83 -59 15.0 1.718 2.583 140.2 14.6 18.4 23.6 2010 07 23 20 44.59 -59 31.5 1.741 2.604 140.1 14.5 18.5 23.6 2010 07 28 20 37.23 -59 37.8 1.769 2.625 139.4 14.6 18.6 23.7 2010 08 02 20 30.03 -59 34.1 1.801 2.646 138.2 14.8 18.7 23.7 2010 08 07 20 23.28 -59 20.8 1.839 2.667 136.5 15.2 18.8 23.8 2010 08 12 20 17.21 -58 58.6 1.881 2.688 134.3 15.6 19.0 23.9 2010 08 17 20 12.02 -58 28.6 1.927 2.710 131.9 16.2 19.1 24.0 2010 08 22 20 07.81 -57 51.7 1.978 2.731 129.1 16.7 19.2 24.1 2010 08 27 20 04.63 -57 09.3 2.032 2.753 126.2 17.2 19.3 24.1 2010 09 01 20 02.49 -56 22.4 2.091 2.774 123.1 17.7 19.5 24.2 2010 09 06 20 01.37 -55 31.8 2.153 2.795 119.9 18.2 19.6 24.3 2010 09 11 20 01.22 -54 38.5 2.218 2.817 116.6 18.6 19.7 24.4 2010 09 16 20 01.97 -53 43.2 2.286 2.838 113.3 19.0 19.9 24.5 2010 09 21 20 03.54 -52 46.4 2.357 2.860 110.0 19.3 20.0 24.6 2010 09 26 20 05.85 -51 48.7 2.430 2.881 106.6 19.5 20.1 24.7 2010 10 01 20 08.82 -50 50.4 2.505 2.903 103.2 19.6 20.3 24.8 2010 10 06 20 12.38 -49 51.8 2.582 2.924 99.8 19.7 20.4 24.9 2010 10 11 20 16.46 -48 53.0 2.661 2.945 96.5 19.7 20.5 25.0 2010 10 16 20 21.00 -47 54.3 2.741 2.967 93.1 19.6 20.6 25.0 2010 10 21 20 25.94 -46 55.7 2.821 2.988 89.8 19.5 20.8 25.1 2010 10 26 20 31.22 -45 57.3 2.903 3.009 86.4 19.3 20.9 25.2 2010 10 31 20 36.80 -44 59.2 2.984 3.030 83.1 19.0 21.0 25.2 2010 11 05 20 42.63 -44 01.3 3.066 3.052 79.8 18.7 21.1 25.3 2010 11 10 20 48.68 -43 03.7 3.148 3.073 76.6 18.3 21.2 25.4 2010 11 15 20 54.92 -42 06.4 3.229 3.094 73.3 17.8 21.4 25.4 2010 11 20 21 01.31 -41 09.4 3.310 3.114 70.1 17.4 21.5 25.5 2010 11 25 21 07.83 -40 12.7 3.390 3.135 66.8 16.8 21.6 25.5 2010 11 30 21 14.44 -39 16.2 3.468 3.156 63.6 16.3 21.7 25.6

Valid HTML 4.01!